LESTLECO

Guest
Details From LEST - Santiago
To LECO - A Coruna
Flight Number -
Tags Routegen Generated
Created
Modified
Stats Distance 24 nm / 44 km
Max Altitude 100 ft / 30 m
Waypoints 5
Social Downloads 3
Likes 0
Share

Download

Looking for another format? Having issues loading an existing format? Contact us
Advertisement - Login to hide

Notes

Departing runway 34 LEST. Arriving runway 3 LECO.

Route

LEST +42.98_-008.44 +43.11_-008.44 +43.23_-008.43 LECO

ID Type Via Altitude (ft/m) Position (lat/lon) Dist (leg/tot) Name
O LEST APT - 0 / 0 42.91177 / -8.42043 - / 0 nm
+42.98_-008.44 LATLON - 100 / 30 42.98200 / -8.44428 4 / 4 nm
+43.11_-008.44 LATLON - 100 / 30 43.10733 / -8.43923 7 / 11 nm
+43.23_-008.43 LATLON - 100 / 30 43.23265 / -8.43417 7 / 19 nm
O LECO APT - 0 / 0 43.29478 / -8.38323 4 / 23 nm

Altitude Profile

Advertisement - Login to hide

LEST

Details ICAO LEST (SCQ)
Name Santiago
Region Spain
Timezone Europe/Madrid (UTC+1.0)
Stats Elevation 1,168 ft / 356 m (AMSL)
Location 42.897800° -8.415640°
Runways 1
Magnetic Variation 1.956° W

METAR

LEST 240000Z 30009KT 260V340 9999 SCT014 BKN023 09/07 Q1009 NOSIG

Decode

TAF

TAF LEST 232300Z 2400/2424 25009KT 9000 SCT010 BKN025 TX10/2412Z TN06/2407Z TEMPO 2400/2412 3000 -RA BR BKN010 TEMPO 2400/2410 1500 -RA BCFG BKN005 TEMPO 2415/2424 BKN010 TEMPO 2417/2424 3000 RA BKN005 PROB40 TEMPO 2418/2424 0800 BCFG BKN002

Decode

Departure Runways

ID Width Length Bearing (true/mag) Surface Threshold Overrun Markings Lighting
17 148 ft / 45 m 10,509 ft / 3,203 m 166.20° / 168.15° ASPHALT 387 ft / 118 m 203 ft / 62 m PREC-APP CENTERLINE EDGE THRESHOLD ALSF-I
35 148 ft / 45 m 10,509 ft / 3,203 m 346.20° / 348.16° ASPHALT 0 ft / 0 m 0 ft / 0 m PREC-APP CENTERLINE EDGE THRESHOLD SALS

LECO

Details ICAO LECO (LCG)
Name A Coruna
Region Spain
Timezone Europe/Madrid (UTC+1.0)
Stats Elevation 330 ft / 101 m (AMSL)
Location 43.301900° -8.377220°
Runways 1
Magnetic Variation 1.974° W

METAR

LECO 240000Z 32010G21KT 280V010 9999 FEW015 SCT022 BKN028 11/10 Q1009 TEMPO 3000 RA

Decode

TAF

TAF AMD TAF AMD LECO 232259Z 2322/2421 24009KT 9999 SCT020 SCT035 TX13/2413Z TN08/2404Z TEMPO 2322/2402 32010KT PROB40 TEMPO 2322/2324 32017G28KT TEMPO 2322/2421 3000 RA PROB40 TEMPO 2322/2404 3000 SHRA BKN010 SCT030TCU

Decode

Destination Runways

ID Width Length Bearing (true/mag) Surface Threshold Overrun Markings Lighting
03 148 ft / 45 m 6,364 ft / 1,940 m 30.94° / 32.91° ASPHALT 0 ft / 0 m 0 ft / 0 m PREC-APP CENTERLINE EDGE THRESHOLD REIL-OMNI
21 148 ft / 45 m 6,364 ft / 1,940 m 210.94° / 212.92° ASPHALT 0 ft / 0 m 0 ft / 0 m PREC-APP CENTERLINE EDGE THRESHOLD REIL-OMNI

Approach Navaids

Runway Type Ident Frequency Range Bearing (true/mag) Slope Elevation
21 GS LCO 109.90 MHz 10 nm / 19 km 210.94° / 212.91 ° 3.00° 330 ft / 101 m (AMSL)
21 DME LCO 109.90 MHz 18 nm / 33 km - - 293 ft / 89 m (AMSL)
21 LOC-ILS LCO 109.90 MHz 18 nm / 33 km 210.94° / 212.91 ° - 330 ft / 101 m (AMSL)

Popular Alternatives